Flag for U.S.A. Weather past 2 weeks in Provincetown, Massachusetts, U.S.A.

Now
72 °F

Mild.


Feels Like: 75 °F
Forecast: 69 / 80 °F
Wind: 12 mph from Southwest

Location: Provincetown Weather Reporting Station

Current Time: Sep 2, 2015 at 8:54:23 PM

Latest Report: Sep 2, 2015 at 8:15 PM


Visibility: 10 mi

Pressure: 29.89 "Hg

Humidity: 69%

Dew point: 61 °F

Location of ProvincetownLocation

Historic Weather in Provincetown — Graph

°F

Provincetown temperature yesterday

Maximum temperature yesterday: 75 °F (at 1:35 PM)
Minimum temperature yesterday: 66 °F (at 8:55 PM)
Average temperature yesterday: 71 °F

Past Weeks' High & Low Weather Summary

 TemperatureHumidityPressure
High84 °F (Aug 19, 1:15 PM)94% (Aug 23, 1:15 PM)30.21 "Hg (Aug 23, 1:15 PM)
Low57 °F (Aug 29, 5:35 AM)42% (Aug 29, 1:15 PM)29.86 "Hg (Aug 26, 2:55 AM)
Average73 °F72%30.02 "Hg
* Reported Aug 18 7:15 PM — Sep 2 7:35 PM, Provincetown, Weather by CustomWeather, © 2015

Note: Actual official high and low records may vary slightly from our data, if they occured in-between our weather recording intervals... More about our weather records

Advertising

Provincetown weather history for previous 24 hours

 ConditionsComfort  
Time TempWeatherWind HumidityBarometerVisibility
7:35 PM
Wed, Sep 2
72 °FMild.10 mph69%29.88 "Hg10 mi
7:15 PM73 °FMild.12 mph65%29.88 "Hg10 mi
6:55 PM73 °FMild.13 mph65%29.88 "Hg10 mi
5:35 PM75 °FMild.14 mph65%29.89 "Hg10 mi
4:55 PM79 °FWarm.14 mph58%29.90 "Hg10 mi
4:35 PM79 °FWarm.13 mph58%29.90 "Hg10 mi
4:15 PM79 °FWarm.14 mph58%29.91 "Hg10 mi
3:55 PM81 °FWarm.10 mph54%29.92 "Hg10 mi
3:35 PM81 °FWarm.14 mph54%29.92 "Hg10 mi
3:15 PM81 °FWarm.16 mph54%29.92 "Hg10 mi
2:55 PM81 °FWarm.14 mph58%29.93 "Hg10 mi
2:35 PM81 °FWarm.13 mph58%29.93 "Hg10 mi
2:15 PM81 °FWarm.13 mph58%29.94 "Hg10 mi
1:55 PM81 °FWarm.14 mph58%29.94 "Hg10 mi
1:35 PM81 °FWarm.12 mph58%29.95 "Hg10 mi
1:15 PM81 °FWarm.13 mph58%29.95 "Hg10 mi
12:55 PM81 °FWarm.16 mph58%29.96 "Hg10 mi
12:35 PM81 °FWarm.14 mph62%29.97 "Hg10 mi
12:15 PM81 °FWarm.13 mph58%29.97 "Hg10 mi
11:55 AM79 °FWarm.12 mph61%29.98 "Hg10 mi
11:35 AM79 °FWarm.9 mph61%29.99 "Hg10 mi
11:15 AM77 °FWarm.14 mph65%29.99 "Hg10 mi
10:55 AM77 °FWarm.15 mph65%29.99 "Hg10 mi
10:35 AM77 °FWarm.10 mph65%30.00 "Hg10 mi
10:15 AM75 °FMild.13 mph69%30.00 "Hg10 mi
9:55 AM73 °FMild.13 mph69%30.00 "Hg10 mi
9:35 AM73 °FMild.9 mph74%30.01 "Hg10 mi
9:15 AM73 °FMild.10 mph69%30.01 "Hg10 mi
8:55 AM72 °FMild.10 mph73%30.01 "Hg10 mi
8:35 AM72 °FMild.9 mph78%30.01 "Hg10 mi
8:15 AM72 °FMild.10 mph73%30.01 "Hg10 mi
7:55 AM70 °FMild.9 mph78%30.02 "Hg10 mi
7:35 AM70 °FMild.8 mph78%30.02 "Hg10 mi
7:15 AM70 °FMild.9 mph78%30.01 "Hg10 mi
6:55 AM68 °FMild.9 mph83%30.01 "Hg10 mi
6:35 AM66 °FMild.8 mph83%30.01 "Hg10 mi
6:15 AM66 °FMild.9 mph83%30.01 "Hg10 mi
5:55 AM66 °FMild.9 mph83%30.01 "Hg10 mi
5:35 AM66 °FMild.8 mph83%30.01 "Hg10 mi
5:15 AM66 °FMild.8 mph83%30.02 "Hg10 mi
4:55 AM66 °FMild.7 mph83%30.02 "Hg10 mi
4:35 AM66 °FMild.9 mph83%30.02 "Hg10 mi
4:15 AM68 °FMild.8 mph78%30.02 "Hg10 mi
3:55 AM66 °FMild.9 mph83%30.02 "Hg10 mi
3:35 AM66 °FMild.8 mph83%30.03 "Hg10 mi
3:15 AM66 °FMild.8 mph83%30.03 "Hg10 mi
2:55 AM68 °FMild.8 mph78%30.03 "Hg10 mi
2:35 AM66 °FMild.9 mph83%30.03 "Hg10 mi
2:15 AM66 °FMild.8 mph83%30.04 "Hg10 mi
1:55 AM66 °FMild.8 mph83%30.04 "Hg10 mi
1:35 AM66 °FMild.7 mph83%30.05 "Hg10 mi
1:15 AM66 °FMild.8 mph78%30.05 "Hg10 mi
12:55 AM66 °FMild.8 mph83%30.06 "Hg10 mi
12:15 AM66 °FMild.6 mph83%30.05 "Hg10 mi
11:55 PM
Tue, Sep 1
66 °FMild.7 mph78%30.06 "Hg10 mi
11:15 PM66 °FMild.6 mph78%30.06 "Hg10 mi
10:55 PM66 °FMild.8 mph78%30.06 "Hg10 mi
10:35 PM66 °FMild.6 mph78%30.06 "Hg10 mi
10:15 PM66 °FMild.6 mph73%30.06 "Hg10 mi
9:55 PM66 °FMild.6 mph73%30.07 "Hg10 mi
9:35 PM66 °FMild.5 mph78%30.06 "Hg10 mi
9:15 PM66 °FMild.5 mph78%30.06 "Hg10 mi
8:55 PM66 °FMild.5 mph73%30.06 "Hg10 mi
8:35 PM68 °FMild.6 mph69%30.06 "Hg10 mi
8:15 PM68 °FMild.5 mph69%30.05 "Hg10 mi
Weather by CustomWeather, © 2015

See weather overviewHow to use our weather pages